Time,TemperatureF,DewpointF,PressureIn,WindDirection,WindDirectionDegrees,WindSpeedMPH,WindSpeedGustMPH,Humidity,HourlyPrecipIn,Conditions,Clouds,dailyrainin,SoftwareType,DateUTC
2013-01-29 00:03:00,40.0,37.0,-100.00,SW,227,1.0,14.0,93,4.53,,,-99.99,,2013-01-29 05:03:00,
2013-01-29 00:12:00,40.0,37.0,-100.00,South,184,1.0,14.0,93,4.53,,,-99.99,,2013-01-29 05:12:00,
2013-01-29 00:21:00,40.0,37.0,-100.00,WSW,252,1.0,14.0,93,4.53,,,-99.99,,2013-01-29 05:21:00,
2013-01-29 00:32:00,40.0,37.0,-100.00,SSW,197,1.0,14.0,93,4.53,,,-99.99,,2013-01-29 05:32:00,
2013-01-29 00:42:00,40.0,37.0,-100.00,West,268,1.0,14.0,93,4.53,,,-99.99,,2013-01-29 05:42:00,
2013-01-29 00:52:00,40.0,37.0,-100.00,SW,220,0.0,14.0,93,4.53,,,-99.99,,2013-01-29 05:52:00,
2013-01-29 01:02:00,40.0,37.0,-100.00,SW,230,0.0,14.0,94,4.53,,,-99.99,,2013-01-29 06:02:00,
2013-01-29 01:11:00,40.0,37.0,-100.00,SSW,193,0.0,14.0,93,4.53,,,-99.99,,2013-01-29 06:11:00,
2013-01-29 01:21:00,39.0,37.0,-100.00,South,173,0.0,14.0,94,4.53,,,-99.99,,2013-01-29 06:21:00,
2013-01-29 01:32:00,39.0,37.0,-100.00,SSE,166,0.0,14.0,94,4.53,,,-99.99,,2013-01-29 06:32:00,
2013-01-29 01:42:00,40.0,37.0,-100.00,SSE,165,0.0,14.0,94,4.53,,,-99.99,,2013-01-29 06:42:00,
2013-01-29 01:52:00,39.0,36.0,-100.00,SSE,165,0.0,14.0,94,4.53,,,-99.99,,2013-01-29 06:52:00,
2013-01-29 02:02:00,38.0,36.0,-100.00,NNE,19,0.0,14.0,94,4.53,,,-99.99,,2013-01-29 07:02:00,
2013-01-29 02:11:00,40.0,37.0,-100.00,East,88,0.0,14.0,94,1.14,,,-99.99,,2013-01-29 07:11:00,
2013-01-29 02:21:00,40.0,37.0,-100.00,South,183,1.0,14.0,95,1.14,,,-99.99,,2013-01-29 07:21:00,
2013-01-29 02:32:00,42.0,39.0,-100.00,SSE,155,1.0,14.0,95,2.83,,,-99.99,,2013-01-29 07:32:00,
2013-01-29 02:42:00,40.0,37.0,-100.00,ESE,103,0.0,14.0,94,2.83,,,-99.99,,2013-01-29 07:42:00,
2013-01-29 02:52:00,41.0,37.0,-100.00,SSE,155,0.0,14.0,94,2.83,,,-99.99,,2013-01-29 07:52:00,
2013-01-29 03:02:00,41.0,39.0,-100.00,ESE,122,0.0,14.0,95,4.53,,,-99.99,,2013-01-29 08:02:00,
2013-01-29 03:11:00,40.0,37.0,-100.00,ENE,70,0.0,14.0,95,4.53,,,-99.99,,2013-01-29 08:11:00,
2013-01-29 03:21:00,40.0,37.0,-100.00,East,100,0.0,14.0,95,4.53,,,-99.99,,2013-01-29 08:21:00,
2013-01-29 03:32:00,41.0,39.0,-100.00,East,96,0.0,14.0,95,4.53,,,-99.99,,2013-01-29 08:32:00,
2013-01-29 03:42:00,41.0,37.0,-100.00,ESE,103,0.0,14.0,94,4.53,,,-99.99,,2013-01-29 08:42:00,
2013-01-29 03:52:00,40.0,37.0,-100.00,ENE,69,1.0,14.0,95,4.53,,,-99.99,,2013-01-29 08:52:00,
2013-01-29 04:02:00,41.0,39.0,-100.00,SE,144,0.0,14.0,95,4.53,,,-99.99,,2013-01-29 09:02:00,
2013-01-29 04:11:00,41.0,39.0,-100.00,East,91,1.0,14.0,95,4.53,,,-99.99,,2013-01-29 09:11:00,
2013-01-29 04:21:00,40.0,37.0,-100.00,ESE,107,1.0,14.0,95,4.53,,,-99.99,,2013-01-29 09:21:00,
2013-01-29 04:32:00,40.0,37.0,-100.00,East,94,1.0,14.0,95,4.53,,,-99.99,,2013-01-29 09:32:00,
2013-01-29 04:42:00,40.0,37.0,-100.00,ENE,76,0.0,14.0,94,4.53,,,-99.99,,2013-01-29 09:42:00,
2013-01-29 04:51:00,40.0,37.0,-100.00,ENE,72,1.0,14.0,95,4.53,,,-99.99,,2013-01-29 09:51:00,
2013-01-29 05:01:00,38.0,36.0,-100.00,East,93,2.0,14.0,94,4.53,,,-99.99,,2013-01-29 10:01:00,
2013-01-29 05:11:00,39.0,36.0,-100.00,ESE,118,2.0,14.0,94,4.53,,,-99.99,,2013-01-29 10:11:00,
2013-01-29 05:21:00,39.0,37.0,-100.00,ESE,112,1.0,14.0,94,4.53,,,-99.99,,2013-01-29 10:21:00,
2013-01-29 05:32:00,40.0,37.0,-100.00,ENE,66,1.0,14.0,94,4.53,,,-99.99,,2013-01-29 10:32:00,
2013-01-29 05:42:00,38.0,36.0,-100.00,East,86,2.0,14.0,94,0.00,,,-99.99,,2013-01-29 10:42:00,
2013-01-29 05:52:00,39.0,37.0,-100.00,East,98,2.0,14.0,94,4.53,,,-99.99,,2013-01-29 10:52:00,
2013-01-29 06:02:00,39.0,36.0,-100.00,ESE,105,2.0,14.0,94,0.00,,,-99.99,,2013-01-29 11:02:00,
2013-01-29 06:11:00,39.0,37.0,-100.00,East,101,3.0,14.0,94,0.00,,,-99.99,,2013-01-29 11:11:00,
2013-01-29 06:22:00,40.0,37.0,-100.00,ESE,111,3.0,14.0,94,2.83,,,-99.99,,2013-01-29 11:22:00,
2013-01-29 06:32:00,39.0,37.0,-100.00,East,97,3.0,14.0,95,4.53,,,-99.99,,2013-01-29 11:32:00,
2013-01-29 06:42:00,40.0,37.0,-100.00,East,97,3.0,14.0,94,4.53,,,-99.99,,2013-01-29 11:42:00,
2013-01-29 06:52:00,40.0,37.0,-100.00,East,83,2.0,14.0,94,4.53,,,-99.99,,2013-01-29 11:52:00,
2013-01-29 07:03:00,40.0,37.0,-100.00,East,97,2.0,14.0,94,0.00,,,-99.99,,2013-01-29 12:03:00,
2013-01-29 07:12:00,39.0,37.0,-100.00,East,101,2.0,14.0,95,4.53,,,-99.99,,2013-01-29 12:12:00,
2013-01-29 07:22:00,40.0,37.0,-100.00,East,90,2.0,14.0,94,4.53,,,-99.99,,2013-01-29 12:22:00,
2013-01-29 07:33:00,41.0,39.0,-100.00,East,86,2.0,14.0,94,0.00,,,-99.99,,2013-01-29 12:33:00,
2013-01-29 07:43:00,40.0,37.0,-100.00,ESE,105,2.0,14.0,94,4.53,,,-99.99,,2013-01-29 12:43:00,
2013-01-29 07:52:00,40.0,37.0,-100.00,SE,128,2.0,14.0,94,4.53,,,-99.99,,2013-01-29 12:52:00,
2013-01-29 08:02:00,41.0,39.0,-100.00,ESE,112,2.0,14.0,94,4.53,,,-99.99,,2013-01-29 13:02:00,
2013-01-29 08:12:00,41.0,39.0,-100.00,East,100,3.0,14.0,94,4.53,,,-99.99,,2013-01-29 13:12:00,
2013-01-29 08:22:00,42.0,39.0,-100.00,ENE,57,2.0,14.0,94,0.00,,,-99.99,,2013-01-29 13:22:00,
2013-01-29 08:32:00,43.0,41.0,-100.00,East,98,2.0,14.0,94,-99.99,,,-99.99,,2013-01-29 13:32:00,
2013-01-29 08:43:00,44.0,41.0,-100.00,SSE,152,2.0,14.0,94,14.17,,,-99.99,,2013-01-29 13:43:00,
2013-01-29 08:52:00,45.0,43.0,-100.00,ESE,112,2.0,14.0,94,2.83,,,-99.99,,2013-01-29 13:52:00,
2013-01-29 09:02:00,45.0,43.0,-100.00,ESE,111,4.0,14.0,94,4.53,,,-99.99,,2013-01-29 14:02:00,
2013-01-29 09:12:00,47.0,45.0,-100.00,East,93,5.0,14.0,95,0.00,,,-99.99,,2013-01-29 14:12:00,
2013-01-29 09:22:00,46.0,43.0,-100.00,ESE,104,5.0,14.0,94,0.00,,,-99.99,,2013-01-29 14:22:00,
2013-01-29 09:33:00,47.0,45.0,-100.00,SE,124,6.0,14.0,94,0.00,,,-99.99,,2013-01-29 14:33:00,
2013-01-29 09:43:00,48.0,45.0,-100.00,ESE,117,6.0,14.0,94,0.00,,,-99.99,,2013-01-29 14:43:00,
2013-01-29 09:52:00,48.0,45.0,-100.00,ESE,107,7.0,14.0,94,0.00,,,-99.99,,2013-01-29 14:52:00,
2013-01-29 10:02:00,48.0,45.0,-100.00,ESE,115,5.0,14.0,94,0.00,,,-99.99,,2013-01-29 15:02:00,
2013-01-29 10:12:00,48.0,45.0,-100.00,ESE,107,7.0,14.0,94,0.00,,,-99.99,,2013-01-29 15:12:00,
2013-01-29 10:22:00,49.0,46.0,-100.00,SSE,152,7.0,14.0,94,0.00,,,-99.99,,2013-01-29 15:22:00,
2013-01-29 10:33:00,49.0,46.0,-100.00,SE,127,7.0,14.0,94,0.00,,,-99.99,,2013-01-29 15:33:00,
2013-01-29 10:43:00,50.0,46.0,-100.00,SE,127,9.0,14.0,94,0.00,,,-99.99,,2013-01-29 15:43:00,
2013-01-29 10:53:00,50.0,46.0,-100.00,ESE,117,10.0,14.0,94,0.00,,,-99.99,,2013-01-29 15:53:00,
2013-01-29 11:03:00,52.0,50.0,-100.00,SE,135,7.0,14.0,95,0.00,,,-99.99,,2013-01-29 16:03:00,
2013-01-29 11:12:00,51.0,48.0,-100.00,ESE,111,9.0,14.0,94,0.00,,,-99.99,,2013-01-29 16:12:00,
2013-01-29 11:23:00,51.0,48.0,-100.00,East,97,10.0,14.0,95,0.00,,,-99.99,,2013-01-29 16:23:00,
2013-01-29 11:32:00,51.0,48.0,-100.00,SE,136,9.0,14.0,94,0.00,,,-99.99,,2013-01-29 16:32:00,
2013-01-29 11:43:00,51.0,48.0,-100.00,SSE,151,9.0,14.0,94,0.00,,,-99.99,,2013-01-29 16:43:00,
2013-01-29 11:52:00,52.0,50.0,-100.00,SSE,168,11.0,14.0,94,0.00,,,-99.99,,2013-01-29 16:52:00,
2013-01-29 12:03:00,52.0,50.0,-100.00,SSW,199,8.0,14.0,94,0.00,,,-99.99,,2013-01-29 17:03:00,
2013-01-29 12:12:00,53.0,52.0,-100.00,SSE,163,6.0,14.0,95,0.00,,,-99.99,,2013-01-29 17:12:00,
2013-01-29 12:22:00,53.0,50.0,-100.00,SSE,148,4.0,14.0,94,0.00,,,-99.99,,2013-01-29 17:22:00,
2013-01-29 12:33:00,53.0,50.0,-100.00,SE,124,3.0,14.0,94,0.00,,,-99.99,,2013-01-29 17:33:00,
2013-01-29 12:42:00,51.0,48.0,-100.00,ESE,115,4.0,14.0,94,0.00,,,-99.99,,2013-01-29 17:42:00,
2013-01-29 12:52:00,53.0,50.0,-100.00,ESE,110,4.0,14.0,94,0.00,,,-99.99,,2013-01-29 17:52:00,
2013-01-29 13:04:00,53.0,50.0,-100.00,ESE,122,4.0,14.0,94,0.00,,,-99.99,,2013-01-29 18:04:00,
2013-01-29 13:12:00,53.0,50.0,-100.00,SE,128,4.0,14.0,93,0.00,,,-99.99,,2013-01-29 18:12:00,
2013-01-29 13:22:00,53.0,50.0,-100.00,ESE,104,4.0,14.0,93,0.00,,,-99.99,,2013-01-29 18:22:00,
2013-01-29 13:33:00,53.0,50.0,-100.00,East,101,4.0,14.0,93,0.00,,,-99.99,,2013-01-29 18:33:00,
2013-01-29 13:42:00,53.0,50.0,-100.00,ESE,117,4.0,14.0,91,0.00,,,-99.99,,2013-01-29 18:42:00,
2013-01-29 13:52:00,53.0,50.0,-100.00,East,101,4.0,14.0,91,0.00,,,-99.99,,2013-01-29 18:52:00,
2013-01-29 14:03:00,54.0,50.0,-100.00,SE,125,6.0,14.0,90,0.00,,,-99.99,,2013-01-29 19:03:00,
2013-01-29 14:12:00,55.0,50.0,-100.00,ESE,110,4.0,14.0,89,0.00,,,-99.99,,2013-01-29 19:12:00,
2013-01-29 14:22:00,56.0,52.0,-100.00,ESE,114,4.0,14.0,89,0.00,,,-99.99,,2013-01-29 19:22:00,
2013-01-29 14:32:00,55.0,50.0,-100.00,ESE,108,5.0,14.0,88,0.00,,,-99.99,,2013-01-29 19:32:00,
2013-01-29 14:42:00,55.0,50.0,-100.00,ESE,111,4.0,14.0,88,0.00,,,-99.99,,2013-01-29 19:42:00,
2013-01-29 14:52:00,57.0,54.0,-100.00,SE,128,5.0,14.0,89,0.00,,,-99.99,,2013-01-29 19:52:00,
2013-01-29 15:03:00,58.0,54.0,-100.00,ESE,110,6.0,14.0,89,0.00,,,-99.99,,2013-01-29 20:03:00,
2013-01-29 15:13:00,58.0,54.0,-100.00,SSE,149,5.0,14.0,88,0.00,,,-99.99,,2013-01-29 20:13:00,
2013-01-29 15:22:00,58.0,54.0,-100.00,SE,141,6.0,14.0,88,0.00,,,-99.99,,2013-01-29 20:22:00,
2013-01-29 15:33:00,58.0,54.0,-100.00,SE,135,6.0,14.0,88,0.00,,,-99.99,,2013-01-29 20:33:00,
2013-01-29 15:42:00,58.0,54.0,-100.00,ESE,112,5.0,14.0,88,0.00,,,-99.99,,2013-01-29 20:42:00,
2013-01-29 15:53:00,58.0,54.0,-100.00,ESE,108,5.0,14.0,88,0.00,,,-99.99,,2013-01-29 20:53:00,
2013-01-29 16:03:00,58.0,54.0,-100.00,ESE,105,6.0,14.0,88,0.00,,,-99.99,,2013-01-29 21:03:00,
2013-01-29 16:12:00,58.0,54.0,-100.00,ESE,118,6.0,14.0,88,0.00,,,-99.99,,2013-01-29 21:12:00,
2013-01-29 16:22:00,57.0,52.0,-100.00,ESE,111,6.0,14.0,88,0.00,,,-99.99,,2013-01-29 21:22:00,
2013-01-29 16:33:00,58.0,54.0,-100.00,East,84,6.0,14.0,88,0.00,,,-99.99,,2013-01-29 21:33:00,
2013-01-29 16:42:00,58.0,54.0,-100.00,ESE,118,6.0,14.0,88,0.00,,,-99.99,,2013-01-29 21:42:00,
2013-01-29 16:52:00,58.0,54.0,-100.00,ESE,117,6.0,14.0,88,0.00,,,-99.99,,2013-01-29 21:52:00,
2013-01-29 17:03:00,57.0,52.0,-100.00,East,93,6.0,14.0,86,0.00,,,-99.99,,2013-01-29 22:03:00,
2013-01-29 17:12:00,56.0,52.0,-100.00,East,86,6.0,14.0,88,6.22,,,-99.99,,2013-01-29 22:12:00,
2013-01-29 17:22:00,56.0,52.0,-100.00,ESE,120,6.0,14.0,88,0.00,,,-99.99,,2013-01-29 22:22:00,
2013-01-29 17:33:00,57.0,52.0,-100.00,ESE,103,6.0,14.0,89,0.00,,,-99.99,,2013-01-29 22:33:00,
2013-01-29 17:42:00,56.0,52.0,-100.00,East,97,5.0,14.0,89,0.00,,,-99.99,,2013-01-29 22:42:00,
2013-01-29 17:52:00,56.0,52.0,-100.00,ESE,120,6.0,14.0,89,0.00,,,-99.99,,2013-01-29 22:52:00,
2013-01-29 18:02:00,56.0,52.0,-100.00,ESE,117,4.0,14.0,89,17.01,,,-99.99,,2013-01-29 23:02:00,
2013-01-29 18:12:00,56.0,52.0,-100.00,ESE,121,4.0,14.0,89,0.00,,,-99.99,,2013-01-29 23:12:00,
2013-01-29 18:23:00,56.0,52.0,-100.00,ESE,105,6.0,14.0,89,7.36,,,-99.99,,2013-01-29 23:23:00,
2013-01-29 18:33:00,56.0,52.0,-100.00,ESE,115,6.0,14.0,90,7.36,,,-99.99,,2013-01-29 23:33:00,
2013-01-29 18:42:00,57.0,54.0,-100.00,ESE,105,5.0,14.0,90,0.00,,,-99.99,,2013-01-29 23:42:00,
2013-01-29 18:52:00,57.0,54.0,-100.00,ESE,120,6.0,14.0,90,23.23,,,-99.99,,2013-01-29 23:52:00,
2013-01-29 19:03:00,56.0,52.0,-100.00,East,90,6.0,14.0,89,0.00,,,-99.99,,2013-01-30 00:03:00,
2013-01-29 19:12:00,57.0,54.0,-100.00,ESE,103,6.0,6.0,90,0.00,,,-99.99,,2013-01-30 00:12:00,
2013-01-29 19:22:00,56.0,52.0,-100.00,ENE,73,4.0,6.0,90,0.00,,,-99.99,,2013-01-30 00:22:00,
2013-01-29 19:32:00,56.0,52.0,-100.00,East,97,4.0,6.0,90,0.00,,,-99.99,,2013-01-30 00:32:00,
2013-01-29 19:43:00,56.0,52.0,-100.00,ESE,103,6.0,8.0,90,1.14,,,-99.99,,2013-01-30 00:43:00,
2013-01-29 19:52:00,56.0,52.0,-100.00,East,100,7.0,8.0,90,7.36,,,-99.99,,2013-01-30 00:52:00,
2013-01-29 20:02:00,56.0,52.0,-100.00,ESE,107,6.0,8.0,90,0.00,,,-99.99,,2013-01-30 01:02:00,
2013-01-29 20:12:00,56.0,52.0,-100.00,ESE,104,6.0,8.0,89,0.00,,,-99.99,,2013-01-30 01:12:00,
2013-01-29 20:22:00,56.0,52.0,-100.00,East,94,7.0,10.0,89,0.00,,,-99.99,,2013-01-30 01:22:00,
2013-01-29 20:32:00,56.0,52.0,-100.00,ENE,76,9.0,12.0,89,0.00,,,-99.99,,2013-01-30 01:32:00,
2013-01-29 20:42:00,57.0,52.0,-100.00,East,94,7.0,12.0,88,0.00,,,-99.99,,2013-01-30 01:42:00,
2013-01-29 20:52:00,56.0,52.0,-100.00,East,84,6.0,12.0,88,0.00,,,-99.99,,2013-01-30 01:52:00,
2013-01-29 21:02:00,56.0,52.0,-100.00,East,97,7.0,12.0,88,0.00,,,-99.99,,2013-01-30 02:02:00,
2013-01-29 21:12:00,56.0,52.0,-100.00,East,101,5.0,12.0,88,0.00,,,-99.99,,2013-01-30 02:12:00,
2013-01-29 21:22:00,56.0,52.0,-100.00,ESE,118,5.0,12.0,86,0.00,,,-99.99,,2013-01-30 02:22:00,
2013-01-29 21:33:00,56.0,50.0,-100.00,ESE,120,5.0,12.0,85,0.00,,,-99.99,,2013-01-30 02:33:00,
2013-01-29 21:42:00,57.0,52.0,-100.00,East,96,6.0,12.0,84,0.00,,,-99.99,,2013-01-30 02:42:00,
2013-01-29 21:52:00,57.0,50.0,-100.00,ESE,104,7.0,12.0,81,0.00,,,-99.99,,2013-01-30 02:52:00,
2013-01-29 22:03:00,60.0,54.0,-100.00,ESE,108,8.0,12.0,81,0.00,,,-99.99,,2013-01-30 03:03:00,
2013-01-29 22:12:00,58.0,50.0,-100.00,ESE,103,9.0,12.0,78,0.00,,,-99.99,,2013-01-30 03:12:00,
2013-01-29 22:22:00,59.0,50.0,-100.00,East,97,9.0,14.0,76,0.00,,,-99.99,,2013-01-30 03:22:00,
2013-01-29 22:32:00,59.0,50.0,-100.00,SE,134,11.0,14.0,73,0.00,,,-99.99,,2013-01-30 03:32:00,
2013-01-29 22:42:00,59.0,50.0,-100.00,SE,134,11.0,14.0,73,0.00,,,-99.99,,2013-01-30 03:42:00,
2013-01-29 22:52:00,59.0,50.0,-100.00,SE,125,11.0,14.0,73,0.00,,,-99.99,,2013-01-30 03:52:00,
2013-01-29 23:02:00,60.0,50.0,-100.00,ESE,122,11.0,14.0,71,0.00,,,-99.99,,2013-01-30 04:02:00,
2013-01-29 23:12:00,60.0,50.0,-100.00,ENE,73,11.0,14.0,71,0.00,,,-99.99,,2013-01-30 04:12:00,
2013-01-29 23:22:00,60.0,50.0,-100.00,East,79,12.0,14.0,71,0.00,,,-99.99,,2013-01-30 04:22:00,
2013-01-29 23:32:00,60.0,50.0,-100.00,ESE,105,12.0,17.0,71,0.00,,,-99.99,,2013-01-30 04:32:00,
2013-01-29 23:42:00,60.0,50.0,-100.00,ESE,118,11.0,17.0,71,0.00,,,-99.99,,2013-01-30 04:42:00,
2013-01-29 23:52:00,60.0,48.0,-100.00,SSE,148,9.0,17.0,69,0.00,,,-99.99,,2013-01-30 04:52:00,